Flag for Germany Weather past 2 weeks in Stuhr, Lower Saxony, Germany

Now
41 °F

Passing clouds.


Feels Like: 41 °F
Forecast: 31 / 45 °F
Wind: 1 mph from South

Location: Bremen Airport

Current Time: Feb 27, 2015 at 5:47:30 AM

Latest Report: Feb 27, 2015 at 5:20 AM


Visibility: 4 mi

Pressure: 29.77 "Hg

Humidity: 100%

Dew point: 41 °F

Location of StuhrLocation

Historic Weather in Stuhr — Graph

°F

Stuhr temperature yesterday

Maximum temperature yesterday: 48 °F (at 1:20 PM)
Minimum temperature yesterday: 39 °F (at 12:20 AM)
Average temperature yesterday: 43 °F

Past Weeks' High & Low Weather Summary

 TemperatureHumidityPressure
High50 °F (Feb 14, 2:20 PM)100% (Feb 12, 4:20 AM)30.72 "Hg (Feb 12, 4:20 AM)
Low27 °F (Feb 17, 5:50 AM)57% (Feb 18, 4:20 PM)29.27 "Hg (Feb 21, 6:50 AM)
Average38 °F87%29.95 "Hg
* Reported Feb 12 4:20 AM — Feb 27 4:20 AM, Stuhr, Weather by CustomWeather, © 2015

Note: Actual official high and low records may vary slightly from our data, if they occured in-between our weather recording intervals... More about our weather records

Advertising

Stuhr weather history for previous 24 hours

 ConditionsComfort  
Time TempWeatherWind HumidityBarometerVisibility
4:20 AM
Fri, Feb 27
41 °FPassing clouds.3 mph100%29.77 "Hg4 mi
3:50 AM41 °FPassing clouds.6 mph100%29.77 "Hg4 mi
3:20 AM41 °FPassing clouds.7 mph100%29.77 "Hg3 mi
2:50 AM41 °FPassing clouds.8 mph100%29.77 "Hg3 mi
2:20 AM41 °FPassing clouds.8 mph100%29.80 "Hg2 mi
1:50 AM41 °FPassing clouds.8 mph100%29.80 "Hg2 mi
1:20 AM41 °FPassing clouds.8 mph100%29.80 "Hg1 mi
12:50 AM41 °FPassing clouds.8 mph100%29.80 "Hg1 mi
12:20 AM41 °FPassing clouds.10 mph100%29.80 "Hg2 mi
11:50 PM
Thu, Feb 26
41 °FPassing clouds.9 mph93%29.80 "Hg3 mi
11:20 PM41 °FLight rain. Passing clouds.8 mph93%29.83 "Hg6 mi
10:50 PM41 °FLight rain. Passing clouds.10 mph93%29.83 "HgN/A
10:20 PM43 °FLight rain. Passing clouds.10 mph81%29.83 "HgN/A
9:50 PM43 °FPassing clouds.10 mph81%29.86 "HgN/A
9:20 PM45 °FPassing clouds.13 mph71%29.86 "HgN/A
8:50 PM45 °FPassing clouds.13 mph71%29.86 "HgN/A
8:20 PM45 °FClear.14 mph71%29.86 "Hg10 mi
7:50 PM45 °FClear.14 mph71%29.89 "Hg10 mi
7:20 PM45 °FClear.13 mph71%29.89 "Hg10 mi
6:50 PM45 °FClear.14 mph71%29.89 "Hg10 mi
6:20 PM45 °FClear.14 mph71%29.89 "Hg10 mi
5:50 PM46 °FSunny.14 mph66%29.89 "Hg10 mi
5:20 PM46 °FSunny.15 mph71%29.92 "Hg10 mi
4:50 PM46 °FSunny.15 mph71%29.92 "Hg10 mi
4:20 PM46 °FPartly sunny.16 mph71%29.92 "HgN/A
3:50 PM48 °FScattered clouds.17 mph62%29.95 "HgN/A
3:20 PM48 °FScattered clouds.16 mph62%29.95 "HgN/A
2:50 PM48 °FScattered clouds.17 mph66%29.98 "HgN/A
2:20 PM48 °FPassing clouds.15 mph66%29.98 "HgN/A
1:50 PM46 °FPassing clouds.18 mph66%29.98 "HgN/A
1:20 PM48 °FScattered clouds.17 mph66%30.01 "HgN/A
12:50 PM46 °FScattered clouds.16 mph71%30.04 "HgN/A
12:20 PM46 °FScattered clouds.15 mph66%30.04 "HgN/A
11:50 AM46 °FScattered clouds.14 mph66%30.07 "HgN/A
11:20 AM45 °FScattered clouds.14 mph71%30.07 "HgN/A
10:50 AM45 °FScattered clouds.13 mph76%30.07 "HgN/A
10:20 AM43 °FScattered clouds.10 mph81%30.07 "HgN/A
9:50 AM41 °FPartly sunny.10 mph87%30.09 "HgN/A
9:20 AM41 °FPartly sunny.9 mph87%30.09 "Hg6 mi
8:50 AM41 °FPartly sunny.8 mph87%30.09 "Hg5 mi
8:20 AM39 °FPartly sunny.7 mph93%30.09 "Hg5 mi
7:50 AM39 °FBroken clouds.7 mph93%30.09 "Hg4 mi
6:50 AM39 °FPassing clouds.6 mph93%30.09 "HgN/A
6:20 AM39 °FPassing clouds.5 mph93%30.09 "Hg4 mi
5:50 AM39 °FFog.3 mph93%30.09 "Hg3 mi
5:20 AM39 °FPassing clouds.5 mph100%30.09 "Hg4 mi
Weather by CustomWeather, © 2015

See weather overviewHow to use our weather pages